QPF
0.04 0.06 0.09 0.11 0.13 0.18 0.20 0.22 0.20 0.20 0.20 0.18 0.13 0.12 0.09 0.08 0.06 0.05 0.03 0.02 0.02 0.02 0.02 0.02 0.02 0.01 0.01 0.01 0.01 0.01 0.01 0.01 0.01 0.03 0.04 0.04 0.03 0.02 0.02 0.01 0.01 0.01 0.02
0.04 0.07 0.09 0.09 0.11 0.12 0.13 0.16 0.18 0.17 0.17 0.17 0.15 0.14 0.13 0.07 0.04 0.04 0.04 0.02 0.02 0.01 0.01 0.02 0.01 0.01 0.02 0.01 0.01 0.01 0.01 0.01 0.01 0.02 0.04 0.05 0.05 0.03 0.01 0.01 0.01 0.01 0.02
0.03 0.03 0.05 0.07 0.09 0.11 0.10 0.12 0.15 0.15 0.18 0.20 0.17 0.17 0.19 0.15 0.09 0.05 0.04 0.03 0.02 0.01 0.02 0.02 0.01 0.01 0.01 0.01 0.01 0.01 0.01 0.01 0.01 0.01 0.02 0.04 0.05 0.04 0.02 0.01 0.01 0.01 0.01
0.03 0.04 0.04 0.06 0.06 0.07 0.08 0.12 0.14 0.16 0.17 0.19 0.17 0.14 0.10 0.11 0.09 0.05 0.04 0.03 0.02 0.01 0.01 0.01 0.01 0.01 0.01 0.02 0.01 0.00 0.00 0.01 0.01 0.01 0.01 0.01 0.02 0.03 0.03 0.01 0.01 0.01 0.01
0.01 0.03 0.04 0.04 0.06 0.07 0.08 0.10 0.13 0.15 0.15 0.15 0.16 0.19 0.16 0.12 0.08 0.08 0.06 0.05 0.02 0.01 0.01 0.01 0.01 0.01 0.01 0.01 0.01 0.01 0.00 0.00 0.01 0.00 0.00 0.00 0.01 0.01 0.02 0.02 0.02 0.01 0.01
0.01 0.03 0.04 0.05 0.05 0.05 0.06 0.09 0.12 0.13 0.14 0.14 0.13 0.17 0.16 0.14 0.13 0.10 0.07 0.04 0.02 0.01 0.01 0.01 0.02 0.01 0.01 0.01 0.01 0.01 0.00 0.00 0.00 0.00 0.00 0.01 0.01 0.01 0.01 0.01 0.01 0.01 0.01
0.01 0.02 0.04 0.04 0.04 0.04 0.05 0.08 0.10 0.10 0.11 0.11 0.12 0.14 0.17 0.16 0.15 0.11 0.08 0.05 0.02 0.02 0.02 0.02 0.02 0.02 0.02 0.01 0.01 0.01 0.00 0.00 0.00 0.00 0.00 0.00 0.01 0.01 0.00 0.00 0.01 0.01 0.01
0.02 0.02 0.02 0.02 0.02 0.02 0.04 0.08 0.09 0.08 0.09 0.11 0.12 0.12 0.16 0.14 0.12 0.12 0.10 0.06 0.04 0.02 0.02 0.02 0.02 0.02 0.02 0.02 0.01 0.01 0.00 0.00 0.00 0.00 0.00 0.00 0.00 0.00 0.00 0.00 0.00 0.01 0.01
0.01 0.02 0.01 0.01 0.02 0.02 0.03 0.07 0.08 0.07 0.07 0.11 0.12 0.10 0.11 0.13 0.14 0.11 0.09 0.06 0.05 0.04 0.04 0.03 0.03 0.02 0.03 0.03 0.02 0.02 0.01 0.01 0.01 0.00 0.00 0.00 0.00 0.00 0.00 0.00 0.00 0.00 0.01
0.02 0.01 0.00 0.00 0.01 0.02 0.03 0.07 0.08 0.07 0.07 0.09 0.11 0.08 0.09 0.10 0.15 0.13 0.09 0.08 0.07 0.05 0.06 0.05 0.04 0.04 0.04 0.04 0.04 0.03 0.03 0.02 0.01 0.01 0.01 0.01 0.00 0.00 0.00 0.00 0.00 0.00 0.00
0.02 0.00 0.00 0.00 0.00 0.01 0.03 0.05 0.07 0.07 0.08 0.10 0.13 0.13 0.12 0.11 0.12 0.12 0.11 0.09 0.09 0.08 0.07 0.07 0.07 0.07 0.07 0.06 0.06 0.05 0.04 0.03 0.03 0.02 0.01 0.01 0.01 0.00 0.00 0.00 0.00 0.00 0.00
0.02 0.00 0.00 0.00 0.00 0.01 0.02 0.04 0.04 0.05 0.07 0.10 0.12 0.14 0.13 0.13 0.11 0.11 0.11 0.09 0.09 0.11 0.11 0.11 0.10 0.07 0.08 0.10 0.09 0.07 0.06 0.05 0.04 0.03 0.03 0.03 0.02 0.02 0.01 0.01 0.01 0.01 0.01
0.02 0.00 0.00 0.00 0.00 0.01 0.02 0.03 0.04 0.05 0.08 0.11 0.11 0.14 0.16 0.14 0.13 0.13 0.13 0.12 0.12 0.12 0.13 0.13 0.14 0.11 0.10 0.10 0.09 0.09 0.08 0.06 0.05 0.04 0.04 0.03 0.03 0.03 0.03 0.03 0.03 0.03 0.02
0.02 0.01 0.00 0.00 0.01 0.02 0.03 0.04 0.05 0.05 0.06 0.09 0.13 0.14 0.15 0.14 0.13 0.13 0.13 0.12 0.12 0.11 0.13 0.13 0.14 0.14 0.11 0.11 0.10 0.10 0.10 0.11 0.10 0.08 0.07 0.06 0.05 0.05 0.05 0.06 0.05 0.06 0.06
0.02 0.02 0.01 0.01 0.01 0.02 0.03 0.04 0.05 0.07 0.08 0.10 0.12 0.13 0.16 0.14 0.13 0.12 0.12 0.12 0.11 0.10 0.11 0.14 0.16 0.16 0.13 0.11 0.12 0.13 0.13 0.15 0.15 0.14 0.12 0.10 0.09 0.07 0.07 0.05 0.06 0.06 0.06
0.01 0.02 0.01 0.01 0.01 0.02 0.03 0.04 0.06 0.07 0.08 0.10 0.11 0.12 0.14 0.13 0.13 0.14 0.15 0.16 0.14 0.15 0.16 0.18 0.18 0.17 0.12 0.11 0.10 0.10 0.13 0.16 0.18 0.19 0.19 0.15 0.11 0.08 0.06 0.03 0.03 0.04 0.05
0.02 0.01 0.01 0.01 0.01 0.02 0.02 0.02 0.04 0.06 0.08 0.10 0.12 0.15 0.17 0.17 0.17 0.18 0.22 0.21 0.21 0.20 0.19 0.18 0.17 0.16 0.14 0.11 0.09 0.08 0.10 0.12 0.15 0.17 0.17 0.14 0.10 0.08 0.06 0.05 0.05 0.04 0.03
0.01 0.02 0.02 0.02 0.02 0.02 0.03 0.05 0.07 0.10 0.10 0.12 0.14 0.17 0.19 0.21 0.22 0.21 0.20 0.17 0.17 0.17 0.15 0.15 0.16 0.16 0.13 0.11 0.08 0.07 0.07 0.10 0.10 0.10 0.10 0.10 0.09 0.06 0.06 0.06 0.06 0.06 0.06
0.01 0.01 0.02 0.04 0.04 0.05 0.05 0.06 0.07 0.09 0.09 0.11 0.13 0.16 0.17 0.17 0.15 0.14 0.14 0.13 0.13 0.12 0.10 0.10 0.10 0.10 0.09 0.08 0.07 0.06 0.06 0.08 0.08 0.07 0.07 0.07 0.07 0.07 0.05 0.05 0.06 0.07 0.08
0.02 0.02 0.02 0.04 0.05 0.05 0.05 0.06 0.07 0.08 0.08 0.09 0.10 0.13 0.14 0.13 0.11 0.10 0.11 0.11 0.10 0.08 0.08 0.08 0.07 0.07 0.06 0.04 0.04 0.03 0.04 0.06 0.08 0.07 0.07 0.08 0.07 0.05 0.04 0.05 0.06 0.08 0.09
0.03 0.03 0.04 0.06 0.07 0.07 0.09 0.09 0.09 0.08 0.08 0.10 0.11 0.13 0.15 0.14 0.13 0.11 0.09 0.08 0.07 0.06 0.07 0.06 0.05 0.04 0.03 0.02 0.02 0.02 0.02 0.03 0.03 0.03 0.03 0.04 0.06 0.05 0.05 0.05 0.05 0.06 0.05
0.04 0.04 0.06 0.07 0.08 0.08 0.08 0.09 0.09 0.07 0.07 0.08 0.08 0.09 0.11 0.12 0.10 0.09 0.07 0.07 0.06 0.04 0.03 0.02 0.02 0.01 0.01 0.01 0.01 0.01 0.01 0.01 0.01 0.02 0.02 0.02 0.03 0.02 0.01 0.01 0.02 0.02 0.01
0.05 0.04 0.05 0.06 0.06 0.06 0.06 0.06 0.05 0.05 0.04 0.04 0.05 0.05 0.04 0.04 0.05 0.04 0.04 0.04 0.03 0.03 0.02 0.02 0.01 0.01 0.00 0.00 0.01 0.00 0.01 0.01 0.01 0.01 0.01 0.01 0.01 0.00 0.00 0.00 0.00 0.00 0.00
0.04 0.03 0.03 0.04 0.04 0.04 0.04 0.04 0.04 0.04 0.03 0.03 0.03 0.03 0.03 0.02 0.02 0.02 0.02 0.01 0.02 0.02 0.02 0.02 0.02 0.01 0.00 0.00 0.00 0.00 0.00 0.00 0.00 0.00 0.00 0.00 0.00 0.00 0.00 0.00 0.00 0.00 0.00
0.04 0.03 0.03 0.03 0.02 0.02 0.02 0.02 0.02 0.02 0.02 0.02 0.01 0.01 0.02 0.02 0.02 0.01 0.01 0.01 0.01 0.01 0.01 0.01 0.01 0.01 0.01 0.01 0.01 0.01 0.01 0.00 0.00 0.00 0.00 0.00 0.00 0.00 0.00 0.00 0.00 0.01 0.01
0.03 0.03 0.03 0.03 0.02 0.01 0.01 0.01 0.01 0.01 0.01 0.00 0.00 0.00 0.00 0.00 0.00 0.00 0.00 0.00 0.00 0.00 0.00 0.01 0.01 0.02 0.02 0.03 0.02 0.02 0.02 0.01 0.00 0.00 0.00 0.00 0.00 0.00 0.01 0.01 0.01 0.01 0.01
MSLP
1003.78 1004.12 1004.52 1004.95 1005.43 1005.95 1006.54 1007.19 1007.91 1008.66 1009.43 1010.17 1010.86 1011.46 1011.97 1012.39 1012.73 1013.03 1013.32 1013.62 1013.95 1014.31 1014.68 1015.07 1015.43 1015.75 1016.03 1016.26 1016.45 1016.62 1016.79 1016.96 1017.15 1017.34 1017.52 1017.67 1017.77 1017.82 1017.80 1017.74 1017.66 1017.60 1017.58
1004.25 1004.63 1005.00 1005.38 1005.75 1006.16 1006.61 1007.16 1007.79 1008.51 1009.28 1010.06 1010.80 1011.46 1012.01 1012.45 1012.80 1013.08 1013.34 1013.62 1013.94 1014.31 1014.71 1015.13 1015.52 1015.88 1016.16 1016.39 1016.56 1016.69 1016.82 1016.97 1017.14 1017.34 1017.54 1017.73 1017.88 1017.96 1017.97 1017.92 1017.82 1017.72 1017.65
1004.63 1005.04 1005.41 1005.74 1006.02 1006.31 1006.63 1007.05 1007.60 1008.26 1009.02 1009.83 1010.62 1011.34 1011.96 1012.45 1012.82 1013.12 1013.38 1013.65 1013.97 1014.34 1014.75 1015.19 1015.61 1015.97 1016.27 1016.48 1016.63 1016.73 1016.83 1016.95 1017.11 1017.31 1017.53 1017.76 1017.96 1018.09 1018.14 1018.11 1018.02 1017.90 1017.78
1004.80 1005.26 1005.65 1005.95 1006.17 1006.36 1006.58 1006.88 1007.33 1007.93 1008.67 1009.49 1010.33 1011.13 1011.82 1012.38 1012.81 1013.15 1013.43 1013.71 1014.02 1014.39 1014.81 1015.25 1015.68 1016.06 1016.36 1016.57 1016.70 1016.79 1016.86 1016.96 1017.10 1017.31 1017.55 1017.81 1018.04 1018.22 1018.31 1018.31 1018.23 1018.10 1017.95
1004.75 1005.26 1005.70 1006.01 1006.20 1006.33 1006.46 1006.67 1007.03 1007.57 1008.28 1009.11 1010.00 1010.86 1011.63 1012.27 1012.77 1013.16 1013.47 1013.76 1014.08 1014.45 1014.86 1015.31 1015.74 1016.13 1016.43 1016.65 1016.78 1016.87 1016.93 1017.02 1017.15 1017.35 1017.59 1017.86 1018.12 1018.32 1018.44 1018.46 1018.39 1018.26 1018.08
1004.51 1005.09 1005.58 1005.94 1006.15 1006.25 1006.33 1006.48 1006.78 1007.27 1007.95 1008.78 1009.69 1010.60 1011.44 1012.15 1012.72 1013.15 1013.51 1013.82 1014.14 1014.50 1014.91 1015.34 1015.78 1016.17 1016.49 1016.72 1016.87 1016.96 1017.03 1017.11 1017.23 1017.42 1017.65 1017.91 1018.16 1018.37 1018.49 1018.53 1018.46 1018.33 1018.15
1004.16 1004.82 1005.40 1005.82 1006.08 1006.20 1006.28 1006.40 1006.65 1007.10 1007.74 1008.56 1009.48 1010.41 1011.29 1012.05 1012.67 1013.15 1013.53 1013.85 1014.17 1014.52 1014.91 1015.34 1015.77 1016.17 1016.51 1016.76 1016.94 1017.05 1017.12 1017.20 1017.31 1017.47 1017.67 1017.90 1018.13 1018.32 1018.44 1018.47 1018.42 1018.29 1018.11
1003.83 1004.57 1005.24 1005.75 1006.08 1006.26 1006.36 1006.48 1006.72 1007.13 1007.74 1008.52 1009.42 1010.35 1011.24 1012.02 1012.65 1013.15 1013.54 1013.86 1014.17 1014.50 1014.87 1015.28 1015.71 1016.11 1016.46 1016.74 1016.94 1017.08 1017.16 1017.24 1017.33 1017.46 1017.62 1017.81 1018.00 1018.16 1018.26 1018.29 1018.25 1018.13 1017.97
1003.62 1004.44 1005.19 1005.79 1006.20 1006.45 1006.61 1006.75 1006.99 1007.38 1007.96 1008.69 1009.54 1010.44 1011.30 1012.05 1012.68 1013.17 1013.54 1013.85 1014.14 1014.44 1014.79 1015.18 1015.59 1015.99 1016.35 1016.65 1016.87 1017.02 1017.12 1017.20 1017.27 1017.36 1017.48 1017.62 1017.76 1017.89 1017.98 1018.01 1017.98 1017.90 1017.77
1003.58 1004.45 1005.27 1005.95 1006.45 1006.78 1007.00 1007.20 1007.45 1007.83 1008.37 1009.05 1009.83 1010.66 1011.45 1012.16 1012.74 1013.19 1013.54 1013.83 1014.09 1014.36 1014.68 1015.04 1015.44 1015.83 1016.19 1016.49 1016.73 1016.89 1016.99 1017.06 1017.11 1017.17 1017.25 1017.35 1017.46 1017.57 1017.65 1017.69 1017.69 1017.64 1017.56
1003.71 1004.60 1005.46 1006.20 1006.77 1007.18 1007.48 1007.73 1008.02 1008.40 1008.90 1009.52 1010.23 1010.96 1011.67 1012.30 1012.82 1013.22 1013.53 1013.79 1014.03 1014.28 1014.58 1014.92 1015.29 1015.66 1016.01 1016.31 1016.54 1016.71 1016.81 1016.86 1016.90 1016.94 1016.99 1017.06 1017.15 1017.24 1017.33 1017.39 1017.42 1017.43 1017.40
1003.90 1004.79 1005.66 1006.43 1007.05 1007.53 1007.91 1008.23 1008.56 1008.96 1009.44 1010.00 1010.63 1011.27 1011.88 1012.43 1012.88 1013.23 1013.51 1013.75 1013.98 1014.22 1014.51 1014.84 1015.19 1015.54 1015.88 1016.16 1016.38 1016.53 1016.62 1016.67 1016.69 1016.72 1016.76 1016.82 1016.90 1016.99 1017.09 1017.18 1017.25 1017.30 1017.32
1004.05 1004.91 1005.75 1006.52 1007.18 1007.73 1008.18 1008.58 1008.97 1009.40 1009.87 1010.40 1010.95 1011.51 1012.03 1012.49 1012.88 1013.20 1013.46 1013.70 1013.94 1014.20 1014.49 1014.82 1015.17 1015.51 1015.82 1016.08 1016.28 1016.41 1016.49 1016.53 1016.55 1016.58 1016.61 1016.68 1016.76 1016.87 1016.98 1017.09 1017.20 1017.27 1017.32
1004.05 1004.84 1005.64 1006.39 1007.08 1007.68 1008.21 1008.69 1009.16 1009.63 1010.11 1010.62 1011.12 1011.61 1012.06 1012.46 1012.80 1013.10 1013.38 1013.64 1013.92 1014.22 1014.55 1014.89 1015.25 1015.58 1015.87 1016.11 1016.29 1016.40 1016.47 1016.50 1016.53 1016.56 1016.61 1016.68 1016.78 1016.90 1017.02 1017.14 1017.25 1017.34 1017.40
1003.84 1004.54 1005.28 1006.00 1006.70 1007.35 1007.96 1008.53 1009.08 1009.61 1010.13 1010.63 1011.11 1011.55 1011.95 1012.31 1012.64 1012.95 1013.25 1013.57 1013.91 1014.28 1014.66 1015.05 1015.43 1015.76 1016.04 1016.27 1016.42 1016.52 1016.58 1016.61 1016.64 1016.69 1016.75 1016.84 1016.95 1017.07 1017.19 1017.29 1017.38 1017.45 1017.49
1003.44 1004.05 1004.71 1005.40 1006.10 1006.80 1007.48 1008.15 1008.79 1009.39 1009.95 1010.47 1010.93 1011.35 1011.73 1012.08 1012.42 1012.76 1013.12 1013.51 1013.93 1014.38 1014.84 1015.29 1015.70 1016.05 1016.33 1016.54 1016.68 1016.76 1016.81 1016.85 1016.89 1016.95 1017.03 1017.13 1017.24 1017.35 1017.44 1017.52 1017.56 1017.57 1017.56
1002.96 1003.46 1004.05 1004.70 1005.40 1006.14 1006.90 1007.65 1008.37 1009.05 1009.66 1010.20 1010.68 1011.10 1011.48 1011.83 1012.19 1012.58 1013.02 1013.49 1014.01 1014.55 1015.09 1015.60 1016.05 1016.42 1016.71 1016.91 1017.03 1017.11 1017.15 1017.19 1017.24 1017.31 1017.40 1017.50 1017.60 1017.69 1017.74 1017.76 1017.74 1017.68 1017.59
1002.54 1002.95 1003.46 1004.07 1004.77 1005.54 1006.36 1007.18 1007.97 1008.72 1009.38 1009.96 1010.46 1010.89 1011.28 1011.66 1012.06 1012.51 1013.01 1013.58 1014.19 1014.81 1015.43 1015.99 1016.48 1016.87 1017.16 1017.36 1017.47 1017.53 1017.57 1017.60 1017.65 1017.73 1017.82 1017.92 1018.00 1018.05 1018.06 1018.01 1017.91 1017.77 1017.59
1002.35 1002.68 1003.12 1003.69 1004.38 1005.17 1006.02 1006.89 1007.75 1008.54 1009.25 1009.86 1010.38 1010.84 1011.25 1011.66 1012.11 1012.61 1013.18 1013.82 1014.50 1015.20 1015.88 1016.48 1017.00 1017.40 1017.69 1017.88 1017.97 1018.02 1018.04 1018.07 1018.11 1018.18 1018.26 1018.34 1018.40 1018.42 1018.38 1018.27 1018.09 1017.86 1017.60
1002.51 1002.77 1003.16 1003.69 1004.36 1005.14 1006.00 1006.91 1007.79 1008.62 1009.36 1010.00 1010.55 1011.03 1011.47 1011.91 1012.40 1012.95 1013.57 1014.26 1015.00 1015.74 1016.45 1017.08 1017.61 1018.01 1018.29 1018.45 1018.53 1018.56 1018.56 1018.56 1018.59 1018.64 1018.71 1018.77 1018.80 1018.78 1018.70 1018.53 1018.30 1018.00 1017.67
1003.09 1003.29 1003.63 1004.12 1004.75 1005.52 1006.37 1007.27 1008.16 1009.00 1009.76 1010.42 1010.99 1011.49 1011.96 1012.44 1012.95 1013.54 1014.19 1014.91 1015.67 1016.43 1017.14 1017.78 1018.29 1018.68 1018.94 1019.08 1019.13 1019.13 1019.10 1019.08 1019.08 1019.10 1019.14 1019.18 1019.18 1019.14 1019.03 1018.84 1018.57 1018.24 1017.87
1004.04 1004.22 1004.51 1004.95 1005.55 1006.27 1007.09 1007.97 1008.84 1009.67 1010.43 1011.10 1011.69 1012.21 1012.70 1013.20 1013.74 1014.34 1015.00 1015.73 1016.48 1017.23 1017.93 1018.54 1019.03 1019.39 1019.62 1019.73 1019.75 1019.72 1019.65 1019.60 1019.57 1019.56 1019.56 1019.57 1019.56 1019.50 1019.38 1019.19 1018.92 1018.59 1018.21
1005.28 1005.44 1005.71 1006.11 1006.65 1007.32 1008.09 1008.92 1009.76 1010.56 1011.30 1011.97 1012.56 1013.09 1013.60 1014.11 1014.66 1015.26 1015.92 1016.63 1017.36 1018.08 1018.74 1019.32 1019.77 1020.10 1020.29 1020.37 1020.36 1020.29 1020.20 1020.11 1020.03 1019.99 1019.96 1019.95 1019.92 1019.86 1019.75 1019.58 1019.34 1019.05 1018.70
1006.68 1006.85 1007.10 1007.47 1007.95 1008.56 1009.26 1010.02 1010.80 1011.55 1012.26 1012.91 1013.49 1014.03 1014.54 1015.06 1015.60 1016.19 1016.83 1017.50 1018.19 1018.87 1019.49 1020.02 1020.44 1020.73 1020.90 1020.96 1020.92 1020.82 1020.70 1020.57 1020.46 1020.38 1020.33 1020.29 1020.26 1020.21 1020.12 1020.00 1019.82 1019.59 1019.30
1008.10 1008.30 1008.55 1008.88 1009.32 1009.85 1010.47 1011.15 1011.85 1012.54 1013.20 1013.81 1014.37 1014.89 1015.40 1015.91 1016.44 1017.00 1017.60 1018.24 1018.88 1019.50 1020.08 1020.57 1020.96 1021.23 1021.38 1021.42 1021.37 1021.27 1021.12 1020.97 1020.83 1020.72 1020.64 1020.59 1020.56 1020.53 1020.48 1020.42 1020.31 1020.16 1019.95
1009.47 1009.70 1009.95 1010.26 1010.64 1011.10 1011.63 1012.20 1012.81 1013.42 1014.01 1014.56 1015.09 1015.58 1016.06 1016.55 1017.05 1017.58 1018.15 1018.74 1019.33 1019.91 1020.45 1020.91 1021.28 1021.54 1021.69 1021.73 1021.69 1021.58 1021.44 1021.27 1021.12 1020.99 1020.90 1020.84 1020.82 1020.81 1020.81 1020.80 1020.77 1020.70 1020.59
Thickness
5789 5784 5777 5772 5766 5760 5755 5750 5747 5745 5744 5742 5742 5742 5742 5744 5746 5746 5745 5744 5744 5743 5743 5744 5743 5743 5742 5742 5741 5739 5737 5736 5737 5733 5730 5732 5734 5734 5733 5732 5732 5731 5729
5785 5780 5774 5770 5765 5759 5754 5750 5746 5745 5745 5743 5743 5743 5743 5744 5745 5745 5744 5744 5743 5742 5743 5743 5742 5742 5741 5741 5740 5738 5735 5736 5737 5732 5726 5722 5724 5730 5735 5733 5731 5731 5730
5785 5779 5773 5769 5765 5760 5755 5752 5748 5746 5745 5744 5743 5742 5740 5740 5741 5740 5741 5743 5742 5742 5743 5742 5743 5742 5741 5739 5738 5738 5736 5733 5736 5736 5729 5721 5717 5722 5729 5732 5732 5731 5730
5790 5781 5775 5769 5766 5762 5759 5755 5751 5748 5746 5744 5742 5740 5737 5736 5738 5739 5740 5741 5741 5741 5741 5741 5741 5741 5741 5739 5738 5738 5738 5735 5733 5735 5735 5732 5729 5722 5719 5726 5730 5731 5730
5793 5784 5778 5773 5770 5767 5761 5757 5752 5748 5747 5745 5743 5741 5740 5739 5740 5740 5739 5739 5740 5740 5741 5740 5739 5739 5739 5739 5738 5737 5737 5736 5734 5733 5734 5733 5732 5731 5723 5718 5723 5727 5730
5796 5787 5782 5776 5771 5768 5764 5758 5752 5748 5747 5745 5745 5743 5741 5740 5739 5738 5736 5737 5738 5739 5739 5739 5738 5737 5738 5737 5736 5736 5735 5734 5734 5733 5734 5733 5730 5728 5727 5722 5722 5723 5727
5797 5788 5781 5775 5770 5767 5763 5759 5753 5749 5748 5746 5745 5744 5743 5741 5739 5738 5737 5737 5737 5737 5738 5739 5737 5736 5736 5735 5735 5733 5734 5733 5732 5732 5732 5733 5734 5734 5731 5726 5724 5724 5726
5800 5791 5785 5778 5772 5768 5764 5760 5755 5750 5748 5746 5745 5745 5743 5741 5740 5740 5739 5739 5740 5740 5739 5739 5736 5735 5735 5735 5733 5733 5732 5732 5730 5731 5730 5730 5732 5733 5731 5728 5724 5719 5720
5801 5793 5788 5781 5774 5769 5765 5762 5757 5752 5749 5748 5746 5745 5743 5742 5741 5741 5741 5741 5741 5741 5739 5738 5735 5734 5733 5732 5731 5730 5730 5730 5728 5728 5727 5726 5728 5730 5730 5729 5726 5718 5711
5802 5796 5790 5784 5778 5773 5768 5764 5759 5754 5751 5749 5746 5745 5744 5743 5742 5741 5740 5741 5741 5741 5738 5736 5734 5733 5731 5729 5728 5727 5728 5726 5725 5725 5724 5724 5725 5726 5727 5726 5725 5722 5716
5803 5797 5792 5787 5781 5776 5770 5764 5759 5754 5750 5748 5746 5745 5743 5743 5741 5740 5739 5739 5738 5738 5735 5734 5732 5730 5728 5727 5724 5723 5725 5723 5722 5723 5722 5720 5720 5720 5721 5721 5720 5718 5716
5804 5799 5793 5787 5781 5776 5771 5765 5761 5755 5751 5748 5746 5744 5743 5742 5740 5738 5737 5737 5735 5734 5733 5731 5728 5727 5726 5724 5722 5720 5721 5719 5718 5718 5717 5716 5717 5715 5714 5713 5713 5713 5713
5802 5797 5791 5784 5780 5776 5771 5767 5762 5757 5753 5749 5746 5743 5741 5740 5737 5736 5735 5734 5732 5730 5729 5727 5725 5723 5722 5721 5719 5717 5717 5716 5715 5714 5713 5711 5710 5708 5707 5707 5706 5706 5707
5796 5792 5785 5781 5777 5774 5770 5767 5762 5758 5754 5749 5744 5740 5739 5737 5735 5734 5732 5729 5727 5725 5724 5722 5721 5719 5718 5716 5715 5714 5712 5710 5710 5710 5708 5707 5705 5703 5701 5700 5699 5698 5697
5789 5785 5780 5776 5773 5769 5767 5764 5760 5757 5753 5747 5742 5739 5738 5736 5733 5730 5728 5725 5722 5721 5719 5717 5715 5714 5712 5709 5709 5708 5707 5705 5704 5703 5702 5700 5699 5697 5695 5693 5691 5690 5688
5782 5779 5775 5771 5767 5765 5762 5759 5757 5754 5751 5746 5741 5739 5735 5731 5728 5725 5723 5720 5718 5716 5713 5711 5707 5704 5702 5700 5701 5701 5700 5699 5697 5695 5693 5692 5690 5689 5686 5685 5683 5680 5678
5776 5772 5769 5766 5762 5761 5759 5755 5753 5750 5746 5742 5739 5735 5731 5726 5723 5721 5717 5714 5711 5708 5705 5702 5698 5694 5690 5691 5692 5692 5692 5691 5688 5686 5684 5683 5681 5678 5677 5676 5674 5672 5669
5769 5766 5763 5760 5759 5756 5754 5751 5747 5743 5739 5735 5732 5729 5725 5721 5717 5713 5709 5705 5702 5698 5695 5691 5688 5684 5681 5681 5683 5683 5683 5680 5677 5674 5672 5670 5666 5665 5663 5664 5664 5662 5660
5761 5759 5758 5755 5752 5748 5745 5742 5737 5733 5730 5726 5724 5722 5718 5714 5709 5703 5699 5695 5691 5687 5684 5681 5677 5674 5670 5671 5672 5673 5672 5668 5664 5662 5658 5657 5653 5651 5651 5652 5651 5649 5647
5751 5749 5748 5746 5741 5738 5736 5730 5725 5722 5718 5716 5714 5711 5709 5704 5699 5694 5690 5685 5681 5677 5674 5670 5666 5663 5659 5658 5659 5660 5660 5656 5652 5648 5644 5641 5639 5637 5636 5635 5634 5632 5630
5737 5736 5735 5731 5728 5726 5723 5716 5712 5708 5706 5704 5702 5698 5695 5691 5688 5684 5681 5677 5672 5667 5663 5659 5654 5651 5648 5646 5646 5645 5644 5642 5639 5636 5633 5629 5625 5624 5621 5619 5618 5615 5613
5722 5722 5720 5716 5714 5713 5709 5703 5698 5697 5695 5693 5690 5686 5684 5682 5677 5673 5669 5666 5662 5658 5653 5649 5644 5640 5637 5633 5632 5630 5628 5626 5625 5622 5620 5616 5613 5611 5608 5606 5604 5601 5599
5707 5707 5705 5702 5700 5699 5696 5691 5687 5686 5684 5681 5677 5674 5671 5667 5664 5661 5657 5655 5652 5649 5645 5640 5636 5630 5625 5620 5617 5616 5615 5613 5611 5608 5605 5603 5600 5597 5595 5592 5589 5586 5585
5693 5693 5691 5688 5685 5684 5683 5680 5677 5675 5672 5668 5664 5661 5657 5653 5648 5647 5643 5640 5638 5636 5632 5627 5623 5618 5611 5605 5602 5601 5600 5598 5596 5593 5590 5588 5586 5582 5578 5577 5574 5570 5567
5678 5678 5676 5673 5671 5671 5669 5668 5665 5663 5659 5657 5653 5649 5643 5637 5631 5625 5620 5619 5613 5614 5613 5609 5605 5602 5595 5586 5583 5582 5582 5578 5576 5573 5576 5576 5573 5568 5564 5560 5556 5551 5546
5665 5664 5663 5661 5659 5658 5656 5654 5653 5652 5649 5646 5643 5639 5635 5629 5623 5615 5606 5598 5597 5596 5594 5592 5588 5581 5577 5574 5571 5568 5565 5563 5560 5558 5559 5556 5551 5545 5540 5536 5531 5527 5523